STARLINK-6365, 57237

Orbit data source: Space-Track

STARLINK-6365, 57237 is a payload satellite owned by SpaceX/Seattle (US) in LEO that was launched on Fri, 07 Jul 2023 UTC via an FALCON 9 launch vehicle from the Air Force Western Test Range (AFWTR). Payload-class satellites include a variety of spacecraft equipped with specific instruments for various scientific and technological missions. These include communications satellites like Starlink; space stations such as the ISS; scientific satellites like the Hubble; Earth observation satellites from companies like Planet Labs, Umbra, and HawkEye 360; GPS; miniature CubeSats for education and research; and military/defense satellites.

Loading next visibility...
Identifier
57237, 2023-094V
Orbit
LEO
Country
Flag of USUS
Related business
Manufacturer
SpaceX/Seattle
Mission
Operational Commercial Communications
Bus & Motor
STARLINK, Unknown motor
Mass
305 kg wet, ~290 kg dry
Launch date (UTC)
2023-07-07 (3 years ago)
Launch vehicle
FALCON 9
Launch site
Air Force Western Test Range (AFWTR)
Object type
Payload
Rocket body
Debris
Shape & HBR
Box + 1 Pan, 10.1 m
Radar Cross Section
11.087 m², Large (>1 m²)

Expand to show TLE details & history
Last TLE update: 8 hours ago

TLE from 8 hours ago
0 STARLINK-6365
1 57237U 23094V   26167.79183779  .00000308  00000-0  20725-4 0  9996
2 57237  43.0013 190.8860 0001951 269.7217  90.3411 15.27578475162276
Epoch: 2026-06-16T19:00Z
TLE epoch observation values (Epoch: 2026-06-16T19:00:14.785Z)
Latitude
-0.00001°
Longitude
0.7656°
Altitude
482.837 km
Speed
7.626 km/s
True Right ascension
12h 43m 32s
True Declination
0° 00' 00"
Sunlit
Object was in daylight at epoch
Visualization orbit readout
Latitude
Unknown
Longitude
Unknown
Altitude
Unknown
Speed
Unknown
Apparent Right ascension
Unknown
Apparent Declination
Unknown
Sunlit
N/A
Visualization observer readout
Local Sidereal Time
13:19:02
Azimuth
Unknown
Elevation
Unknown
Doppler factor
Unknown
Orbital elements
Apogee altitude
486.338 km
Perigee altitude
483.66 km
Semi-major axis
6,863.136 km
Eccentricity
0.0002
Inclination
43.0013°
RAAN
190.886°
Arg. of periapsis
269.7217°
True anomaly
90.36346°
Mean anomaly
90.3411°
Eccentric anomaly
90.35228°
Mean motion
3.81733 °/min
Orbital period
94.31 mins
BSTAR
0.000020725
Loading maneuver chart data...
Computing Atmospheric mass density...
Loading historical data...
Loading historical data...
Loading historical data...
Loading historical data...
Loading historical data...
Loading historical data...
Loading historical data...

Documentation

Showing up to 5 results
|